Terminal Aerodrome Forecast
Issued by NWS Anchorage, AK

Home | Current Version | Previous Version | Text Only | Print | Product List | Glossary On
Versions: 1 2 3 4 5 6 7 8 9 10 11 12 13 14 15 16 17 18 19 20 21 22 23 24 25 26 27 28 29 30 31 32 33 34 35 36 37 38 39 40 41 42 43 44 45 46 47 48 49 50
000
FTAK31 PANC 281136
TAFANC
TAF
PANC 281136Z 2812/2918 33006KT P6SM VCSH BKN060 OVC100
     FM290000 04005KT P6SM -RA SCT040 BKN050 OVC060
     FM290500 05006KT 5SM RA BR FEW010 OVC030
     FM291200 VRB03KT 6SM BR VCFG FEW005 OVC020=

USA.gov is the U.S. government's official web portal to all federal, state and local government web resources and services.